When you browse on this site, cookies collect data to enhance your experience and personalize the content and advertising you see.
Visit our Privacy Policy to learn more. By continuing to use the site, you agree to this use of cookies and data.
  • In United Kingdom
  • List of Countries
  • For 7 days
  • Water Temperature
  • Satellite Maps
  • Weather Map
  • Weather Widgets
  • user-avatar
    Login

    Hourly Weather Molfetta

    Today, 21 March, Thursday

    Time Temperature Precipitation Wind Pressure Humidity
    00:00 +8°C° 0 mm 5 mps 766 mmHg 80%
    01:00 +7°C° 0 mm 5 mps 766 mmHg 80%
    02:00 +7°C° 0 mm 5 mps 766 mmHg 81%
    03:00 +7°C° 0 mm 5 mps 766 mmHg 83%
    04:00 +7°C° 0 mm 4 mps 766 mmHg 84%
    05:00 +7°C° 0 mm 4 mps 766 mmHg 84%
    06:00 +7°C° 0 mm 4 mps 767 mmHg 84%
    07:00 +8°C° 0 mm 4 mps 767 mmHg 84%
    08:00 +10°C° 0 mm 4 mps 767 mmHg 79%
    09:00 +12°C° 0 mm 5 mps 767 mmHg 74%
    10:00 +14°C° 0 mm 5 mps 768 mmHg 69%
    11:00 +15°C° 0 mm 5 mps 767 mmHg 65%
    12:00 +16°C° 0 mm 5 mps 767 mmHg 62%
    13:00 +16°C° 0 mm 6 mps 767 mmHg 59%
    14:00 +16°C° 0 mm 6 mps 767 mmHg 60%
    15:00 +15°C° 0 mm 6 mps 767 mmHg 61%
    16:00 +15°C° 0 mm 6 mps 767 mmHg 62%
    17:00 +14°C° 0 mm 5 mps 767 mmHg 68%
    18:00 +13°C° 0 mm 5 mps 767 mmHg 73%
    19:00 +11°C° 0 mm 4 mps 767 mmHg 78%
    20:00 +11°C° 0 mm 4 mps 767 mmHg 80%
    21:00 +10°C° 0 mm 4 mps 768 mmHg 82%
    22:00 +10°C° 0 mm 4 mps 768 mmHg 84%
    23:00 +8°C° 0 mm 4 mps 768 mmHg 85%

    Tomorrow, 22 March, Friday

    Time Temperature Precipitation Wind Pressure Humidity
    00:00 +8°C° 0 mm 4 mps 768 mmHg 85%
    01:00 +8°C° 0 mm 4 mps 768 mmHg 86%
    02:00 +8°C° 0 mm 4 mps 768 mmHg 87%
    03:00 +8°C° 0 mm 4 mps 768 mmHg 88%
    04:00 +7°C° 0 mm 4 mps 768 mmHg 89%
    05:00 +8°C° 0 mm 4 mps 768 mmHg 88%
    06:00 +8°C° 0 mm 4 mps 768 mmHg 88%
    07:00 +8°C° 0 mm 4 mps 768 mmHg 88%
    08:00 +11°C° 0 mm 4 mps 768 mmHg 82%
    09:00 +13°C° 0 mm 4 mps 768 mmHg 76%
    10:00 +15°C° 0 mm 4 mps 768 mmHg 70%
    11:00 +17°C° 0 mm 4 mps 768 mmHg 65%
    12:00 +18°C° 0 mm 4 mps 768 mmHg 61%
    13:00 +19°C° 0 mm 4 mps 767 mmHg 57%
    14:00 +18°C° 0 mm 4 mps 767 mmHg 58%
    15:00 +18°C° 0 mm 4 mps 767 mmHg 59%
    16:00 +16°C° 0 mm 5 mps 766 mmHg 60%
    17:00 +15°C° 0 mm 4 mps 766 mmHg 66%
    18:00 +13°C° 0 mm 3 mps 766 mmHg 72%
    19:00 +12°C° 0 mm 3 mps 766 mmHg 78%
    20:00 +11°C° 0 mm 3 mps 766 mmHg 80%
    21:00 +11°C° 0 mm 3 mps 766 mmHg 83%
    22:00 +11°C° 0 mm 4 mps 767 mmHg 85%
    23:00 +10°C° 0 mm 4 mps 766 mmHg 85%

    Day after tomorrow, 23 March, Saturday

    Time Temperature Precipitation Wind Pressure Humidity
    00:00 +10°C° 0 mm 4 mps 766 mmHg 86%
    01:00 +8°C° 0 mm 4 mps 766 mmHg 86%
    02:00 +8°C° 0 mm 4 mps 766 mmHg 86%
    03:00 +8°C° 0 mm 4 mps 766 mmHg 86%
    04:00 +7°C° 0 mm 4 mps 765 mmHg 86%
    05:00 +8°C° 0 mm 4 mps 765 mmHg 85%
    06:00 +8°C° 0 mm 4 mps 765 mmHg 84%
    07:00 +8°C° 0 mm 4 mps 765 mmHg 83%
    08:00 +11°C° 0 mm 4 mps 765 mmHg 77%
    09:00 +13°C° 0 mm 4 mps 765 mmHg 70%
    10:00 +15°C° 0 mm 4 mps 765 mmHg 64%
    11:00 +17°C° 0 mm 4 mps 765 mmHg 61%
    12:00 +18°C° 0 mm 4 mps 765 mmHg 59%
    13:00 +19°C° 0 mm 5 mps 765 mmHg 56%
    14:00 +18°C° 0 mm 4 mps 765 mmHg 57%
    15:00 +18°C° 0 mm 4 mps 764 mmHg 58%
    16:00 +18°C° 0 mm 4 mps 764 mmHg 59%
    17:00 +15°C° 0 mm 4 mps 764 mmHg 65%
    18:00 +14°C° 0 mm 3 mps 765 mmHg 71%
    19:00 +13°C° 0 mm 2 mps 765 mmHg 77%
    20:00 +12°C° 0 mm 3 mps 765 mmHg 79%
    21:00 +12°C° 0 mm 3 mps 765 mmHg 80%
    22:00 +11°C° 0 mm 3 mps 765 mmHg 82%
    23:00 +11°C° 0 mm 3 mps 765 mmHg 82%

    24 March, Sunday

    Time Temperature Precipitation Wind Pressure Humidity
    00:00 +10°C° 0 mm 3 mps 765 mmHg 82%
    01:00 +10°C° 0 mm 3 mps 765 mmHg 83%
    02:00 +10°C° 0 mm 3 mps 765 mmHg 80%
    03:00 +10°C° 0 mm 3 mps 765 mmHg 78%
    04:00 +8°C° 0 mm 4 mps 765 mmHg 75%
    05:00 +10°C° 0 mm 4 mps 765 mmHg 72%
    06:00 +10°C° 0 mm 4 mps 765 mmHg 70%
    07:00 +11°C° 0 mm 4 mps 765 mmHg 67%
    08:00 +13°C° 0 mm 3 mps 766 mmHg 60%
    09:00 +16°C° 0 mm 3 mps 766 mmHg 53%
    10:00 +18°C° 0 mm 3 mps 766 mmHg 46%
    11:00 +19°C° 0 mm 3 mps 766 mmHg 44%
    12:00 +20°C° 0 mm 3 mps 766 mmHg 42%
    13:00 +21°C° 0 mm 3 mps 766 mmHg 41%
    14:00 +21°C° 0 mm 3 mps 765 mmHg 43%
    15:00 +20°C° 0 mm 3 mps 765 mmHg 46%
    16:00 +20°C° 0 mm 3 mps 765 mmHg 49%
    17:00 +18°C° 0 mm 2 mps 765 mmHg 56%
    18:00 +16°C° 0 mm 1 mps 765 mmHg 62%
    19:00 +15°C° 0 mm 1 mps 765 mmHg 69%
    20:00 +14°C° 0 mm 1 mps 765 mmHg 69%
    21:00 +14°C° 0 mm 1 mps 765 mmHg 68%
    22:00 +14°C° 0 mm 1 mps 765 mmHg 68%
    23:00 +14°C° 0 mm 1 mps 765 mmHg 69%

    25 March, Monday

    Time Temperature Precipitation Wind Pressure Humidity
    00:00 +13°C° 0 mm 1 mps 764 mmHg 70%
    01:00 +13°C° 0 mm 2 mps 764 mmHg 71%
    02:00 +13°C° 0 mm 2 mps 764 mmHg 72%
    03:00 +12°C° 0 mm 2 mps 764 mmHg 73%
    04:00 +12°C° 0 mm 2 mps 763 mmHg 74%
    05:00 +13°C° 0 mm 2 mps 763 mmHg 73%
    06:00 +13°C° 0 mm 2 mps 763 mmHg 71%
    07:00 +14°C° 0 mm 2 mps 763 mmHg 70%
    08:00 +16°C° 0 mm 2 mps 763 mmHg 62%
    09:00 +18°C° 0 mm 2 mps 763 mmHg 54%
    10:00 +20°C° 0 mm 2 mps 763 mmHg 46%
    11:00 +21°C° 0 mm 2 mps 763 mmHg 45%
    12:00 +21°C° 0 mm 2 mps 763 mmHg 43%
    13:00 +23°C° 0 mm 2 mps 762 mmHg 41%
    14:00 +23°C° 0 mm 2 mps 762 mmHg 44%
    15:00 +21°C° 0 mm 3 mps 762 mmHg 47%
    16:00 +21°C° 0 mm 3 mps 761 mmHg 50%
    17:00 +19°C° 0.2 mm 2 mps 761 mmHg 55%
    18:00 +18°C° 0.2 mm 1 mps 761 mmHg 60%
    19:00 +16°C° 0.2 mm 1 mps 761 mmHg 65%
    20:00 +15°C° 0 mm 1 mps 761 mmHg 67%
    21:00 +15°C° 0 mm 1 mps 761 mmHg 68%
    22:00 +15°C° 0 mm 1 mps 761 mmHg 70%
    23:00 +14°C° 0 mm 2 mps 760 mmHg 70%

    26 March, Tuesday

    Time Temperature Precipitation Wind Pressure Humidity
    00:00 +12°C° 0 mm 3 mps 760 mmHg 70%
    01:00 +12°C° 0 mm 3 mps 760 mmHg 69%
    02:00 +12°C° 0 mm 4 mps 760 mmHg 67%
    03:00 +12°C° 0 mm 4 mps 760 mmHg 64%
    04:00 +12°C° 0 mm 4 mps 759 mmHg 61%
    05:00 +12°C° 0 mm 4 mps 759 mmHg 61%
    06:00 +12°C° 0 mm 4 mps 759 mmHg 61%
    07:00 +12°C° 0 mm 4 mps 759 mmHg 60%
    08:00 +14°C° 0 mm 4 mps 759 mmHg 58%
    09:00 +15°C° 0 mm 4 mps 759 mmHg 55%
    10:00 +18°C° 0 mm 4 mps 759 mmHg 52%
    11:00 +19°C° 0 mm 4 mps 759 mmHg 52%
    12:00 +19°C° 0 mm 4 mps 759 mmHg 53%
    13:00 +19°C° 0 mm 5 mps 759 mmHg 53%
    14:00 +19°C° 0.2 mm 5 mps 759 mmHg 57%
    15:00 +17°C° 0.2 mm 5 mps 759 mmHg 62%
    16:00 +16°C° 0.2 mm 5 mps 759 mmHg 66%
    17:00 +15°C° 0.3 mm 5 mps 759 mmHg 71%
    18:00 +14°C° 0.3 mm 5 mps 759 mmHg 76%
    19:00 +13°C° 0.3 mm 5 mps 760 mmHg 80%
    20:00 +11°C° 0 mm 6 mps 760 mmHg 79%
    21:00 +10°C° 0 mm 7 mps 761 mmHg 77%
    22:00 +10°C° 0 mm 7 mps 761 mmHg 76%
    23:00 +10°C° 0 mm 8 mps 762 mmHg 72%
    Show more